MTJ9MP EGPH-BIKF

Flight info

Callsign MTJ9MP
Flight time 2h 15m
Altitude 36000
Route GRICE DCT FOYLE N560 ERSON/N0433F360 DCT ORSUM DCT ORTAV/M076F360 DCT 61N013W DCT ALDAN DCT ASRUN ASRUN3K
Aircraft E135/M-SABDFGIRW/S

Departure

Time 2026-04-25 10:53
Airport Edinburgh Airport (EGPH)

Arrival

Time 2026-04-25 13:08
Airport Keflavik International Airport (BIKF)
Time Latitude Longitude Altitude Speed Heading
2026-04-25 10:31 55.94743 -3.36876 103 ft 0 kts 269°
2026-04-25 10:41 55.94743 -3.36858 103 ft 2 kts 269°
2026-04-25 10:41 55.94743 -3.36831 103 ft 2 kts 269°
2026-04-25 10:41 55.94743 -3.36805 103 ft 2 kts 269°
2026-04-25 10:42 55.94743 -3.36778 103 ft 2 kts 280°
2026-04-25 10:42 55.94737 -3.36754 103 ft 2 kts 314°
2026-04-25 10:42 55.94725 -3.36740 103 ft 2 kts 345°
2026-04-25 10:42 55.94716 -3.36737 103 ft 0 kts 360°
2026-04-25 10:47 55.94717 -3.36737 103 ft 0 kts 360°
2026-04-25 10:47 55.94730 -3.36738 103 ft 4 kts 359°
2026-04-25 10:47 55.94768 -3.36760 103 ft 7 kts 325°
2026-04-25 10:47 55.94823 -3.36779 103 ft 9 kts 359°
2026-04-25 10:48 55.94886 -3.36793 103 ft 8 kts 340°
2026-04-25 10:48 55.94929 -3.36860 103 ft 7 kts 290°
2026-04-25 10:48 55.94904 -3.36960 103 ft 10 kts 238°
2026-04-25 10:48 55.94861 -3.37086 103 ft 13 kts 239°
2026-04-25 10:49 55.94809 -3.37241 103 ft 15 kts 239°
2026-04-25 10:49 55.94747 -3.37423 103 ft 18 kts 239°
2026-04-25 10:49 55.94680 -3.37620 103 ft 16 kts 239°
2026-04-25 10:49 55.94616 -3.37812 104 ft 18 kts 239°
2026-04-25 10:50 55.94543 -3.38022 105 ft 20 kts 238°
2026-04-25 10:50 55.94466 -3.38247 107 ft 18 kts 239°
2026-04-25 10:50 55.94407 -3.38427 109 ft 17 kts 239°
2026-04-25 10:50 55.94343 -3.38617 111 ft 17 kts 239°
2026-04-25 10:51 55.94293 -3.38764 112 ft 13 kts 239°
2026-04-25 10:51 55.94292 -3.38872 113 ft 9 kts 321°
2026-04-25 10:51 55.94358 -3.38941 113 ft 12 kts 330°
2026-04-25 10:51 55.94414 -3.38968 112 ft 7 kts 36°
2026-04-25 10:52 55.94452 -3.38864 112 ft 16 kts 59°
2026-04-25 10:52 55.94619 -3.38368 107 ft 84 kts 59°
2026-04-25 10:52 55.95033 -3.37144 145 ft 136 kts 60°
2026-04-25 10:52 55.95551 -3.35615 605 ft 151 kts 60°
2026-04-25 10:53 55.96161 -3.34055 1267 ft 160 kts 46°
2026-04-25 10:53 55.97004 -3.32721 1988 ft 165 kts 43°
2026-04-25 10:53 55.97937 -3.31212 2234 ft 198 kts 43°
2026-04-25 10:53 55.99077 -3.29357 2362 ft 239 kts 43°
2026-04-25 10:54 56.00460 -3.27641 3150 ft 247 kts 24°
2026-04-25 10:54 56.01543 -3.27009 3735 ft 249 kts 10°
2026-04-25 10:54 56.03836 -3.27209 4972 ft 249 kts 342°
2026-04-25 10:54 56.05347 -3.28652 5831 ft 250 kts 319°
2026-04-25 10:55 56.06447 -3.31072 5996 ft 250 kts 296°
2026-04-25 10:55 56.07051 -3.33985 5998 ft 248 kts 289°
2026-04-25 10:55 56.07525 -3.36923 5989 ft 246 kts 286°
2026-04-25 10:55 56.07973 -3.39921 5994 ft 246 kts 286°
2026-04-25 10:56 56.08409 -3.42907 6007 ft 247 kts 286°
2026-04-25 10:56 56.08844 -3.45910 5984 ft 248 kts 286°
2026-04-25 10:56 56.09281 -3.48934 5989 ft 248 kts 286°
2026-04-25 10:56 56.09716 -3.51938 5981 ft 249 kts 287°
2026-04-25 10:57 56.10448 -3.54752 5991 ft 247 kts 301°
2026-04-25 10:57 56.11315 -3.57450 5991 ft 248 kts 301°
2026-04-25 10:57 56.12195 -3.60190 5997 ft 249 kts 301°
2026-04-25 10:57 56.13062 -3.62893 5969 ft 250 kts 301°
2026-04-25 10:58 56.14099 -3.65373 5972 ft 248 kts 321°
2026-04-25 10:58 56.15683 -3.66636 5997 ft 248 kts 345°
2026-04-25 10:58 56.17376 -3.67434 5990 ft 250 kts 343°
2026-04-25 10:58 56.19051 -3.68249 5983 ft 251 kts 343°
2026-04-25 10:59 56.20810 -3.68731 5975 ft 253 kts
2026-04-25 10:59 56.22530 -3.68036 6013 ft 252 kts 13°
2026-04-25 10:59 56.24326 -3.68097 6443 ft 262 kts 338°
2026-04-25 10:59 56.25749 -3.69944 7404 ft 256 kts 307°
2026-04-25 11:00 56.26391 -3.72894 8260 ft 259 kts 276°
2026-04-25 11:00 56.26035 -3.76084 9017 ft 267 kts 244°
2026-04-25 11:00 56.24959 -3.78863 9754 ft 271 kts 244°
2026-04-25 11:00 56.24297 -3.82006 10449 ft 273 kts 254°
2026-04-25 11:01 56.23696 -3.85325 11032 ft 282 kts 255°
2026-04-25 11:01 56.23397 -3.88817 11514 ft 288 kts 277°
2026-04-25 11:01 56.23920 -3.92306 11976 ft 296 kts 294°
2026-04-25 11:01 56.25122 -3.95371 12460 ft 304 kts 314°
2026-04-25 11:02 56.26662 -3.98061 13067 ft 308 kts 316°
2026-04-25 11:02 56.28257 -4.00716 13750 ft 311 kts 317°
2026-04-25 11:02 56.29858 -4.03357 14356 ft 314 kts 317°
2026-04-25 11:02 56.31503 -4.06071 14979 ft 318 kts 317°
2026-04-25 11:03 56.33137 -4.08768 15514 ft 323 kts 317°
2026-04-25 11:03 56.34800 -4.11517 16109 ft 326 kts 317°
2026-04-25 11:03 56.36480 -4.14297 16636 ft 330 kts 317°
2026-04-25 11:03 56.38193 -4.17135 17171 ft 334 kts 317°
2026-04-25 11:04 56.39932 -4.20020 17681 ft 338 kts 317°
2026-04-25 11:04 56.41669 -4.22906 18267 ft 339 kts 317°
2026-04-25 11:04 56.43413 -4.25806 18867 ft 340 kts 317°
2026-04-25 11:04 56.44574 -4.27739 19298 ft 340 kts 317°
2026-04-25 11:05 56.46860 -4.31701 20130 ft 339 kts 311°
2026-04-25 11:05 56.48556 -4.34668 20696 ft 340 kts 322°
2026-04-25 11:05 56.50353 -4.37406 21308 ft 339 kts 319°
2026-04-25 11:05 56.52136 -4.40266 21888 ft 340 kts 319°
2026-04-25 11:06 56.53893 -4.43133 22454 ft 341 kts 319°
2026-04-25 11:06 56.55652 -4.46026 23037 ft 340 kts 319°
2026-04-25 11:06 56.57390 -4.48896 23619 ft 340 kts 319°
2026-04-25 11:06 56.59153 -4.51813 24209 ft 339 kts 319°
2026-04-25 11:07 56.60893 -4.54696 24806 ft 338 kts 319°
2026-04-25 11:07 56.62629 -4.57578 25402 ft 337 kts 319°
2026-04-25 11:07 56.64365 -4.60464 25987 ft 336 kts 319°
2026-04-25 11:07 56.66082 -4.63322 26555 ft 335 kts 319°
2026-04-25 11:08 56.67824 -4.66225 27115 ft 334 kts 318°
2026-04-25 11:08 56.69551 -4.69107 27680 ft 333 kts 318°
2026-04-25 11:08 56.71259 -4.71962 28234 ft 332 kts 318°
2026-04-25 11:08 56.72977 -4.74835 28754 ft 331 kts 318°
2026-04-25 11:09 56.74686 -4.77698 29284 ft 330 kts 318°
2026-04-25 11:09 56.76376 -4.80534 29815 ft 329 kts 318°
2026-04-25 11:09 56.78067 -4.83374 30324 ft 328 kts 318°
2026-04-25 11:09 56.79740 -4.86189 30824 ft 327 kts 318°
2026-04-25 11:10 56.81440 -4.89052 31302 ft 327 kts 318°
2026-04-25 11:10 56.82538 -4.90902 31609 ft 327 kts 318°
2026-04-25 11:10 56.84782 -4.94689 32273 ft 325 kts 318°
2026-04-25 11:10 56.86445 -4.97500 32729 ft 324 kts 318°
2026-04-25 11:11 56.88112 -5.00321 33158 ft 324 kts 318°
2026-04-25 11:11 56.89751 -5.03101 33593 ft 323 kts 318°
2026-04-25 11:11 56.91416 -5.05926 34041 ft 322 kts 318°
2026-04-25 11:11 56.93064 -5.08725 34467 ft 321 kts 318°
2026-04-25 11:12 56.94715 -5.11534 34853 ft 321 kts 318°
2026-04-25 11:12 56.96354 -5.14325 35203 ft 321 kts 318°
2026-04-25 11:12 56.97995 -5.17125 35560 ft 320 kts 318°
2026-04-25 11:12 56.99637 -5.19928 35912 ft 319 kts 318°
2026-04-25 11:13 57.01300 -5.22771 36187 ft 322 kts 318°
2026-04-25 11:13 57.02984 -5.25654 36210 ft 333 kts 318°
2026-04-25 11:13 57.04698 -5.28591 36217 ft 344 kts 318°
2026-04-25 11:13 57.06475 -5.31663 36220 ft 355 kts 318°
2026-04-25 11:14 57.08292 -5.34819 36220 ft 366 kts 318°
2026-04-25 11:14 57.10187 -5.38117 36221 ft 377 kts 318°
2026-04-25 11:14 57.12141 -5.41521 36224 ft 388 kts 317°
2026-04-25 11:14 57.14136 -5.45001 36223 ft 399 kts 318°
2026-04-25 11:15 57.16176 -5.48567 36226 ft 409 kts 318°
2026-04-25 11:15 57.20382 -5.55935 36222 ft 420 kts 318°
2026-04-25 11:16 57.26830 -5.67277 36222 ft 430 kts 317°
2026-04-25 11:16 57.31192 -5.74984 36218 ft 436 kts 317°
2026-04-25 11:17 57.35597 -5.82794 36220 ft 441 kts 317°
2026-04-25 11:17 57.40058 -5.90731 36221 ft 445 kts 317°
2026-04-25 11:18 57.44566 -5.98778 36225 ft 446 kts 317°
2026-04-25 11:18 57.48989 -6.06705 36222 ft 432 kts 317°
2026-04-25 11:19 57.53276 -6.14413 36221 ft 422 kts 317°
2026-04-25 11:19 57.57482 -6.22002 36220 ft 419 kts 317°
2026-04-25 11:20 57.61634 -6.29519 36220 ft 416 kts 317°
2026-04-25 11:20 57.65790 -6.37068 36229 ft 413 kts 317°
2026-04-25 11:21 57.69912 -6.44580 36237 ft 415 kts 317°
2026-04-25 11:21 57.74074 -6.52192 36239 ft 417 kts 317°
2026-04-25 11:22 57.77544 -6.58557 36238 ft 419 kts 317°
2026-04-25 11:22 57.82441 -6.67571 36238 ft 421 kts 316°
2026-04-25 11:23 57.86624 -6.75300 36239 ft 422 kts 316°
2026-04-25 11:23 57.90850 -6.83136 36240 ft 424 kts 316°
2026-04-25 11:24 57.95080 -6.91005 36236 ft 425 kts 316°
2026-04-25 11:24 57.99297 -6.98879 36233 ft 426 kts 316°
2026-04-25 11:25 58.03547 -7.06843 36232 ft 427 kts 316°
2026-04-25 11:25 58.07795 -7.14829 36248 ft 428 kts 316°
2026-04-25 11:26 58.12031 -7.22825 36254 ft 429 kts 316°
2026-04-25 11:26 58.16278 -7.30866 36256 ft 430 kts 316°
2026-04-25 11:27 58.20514 -7.38919 36259 ft 430 kts 316°
2026-04-25 11:27 58.24036 -7.45635 36263 ft 431 kts 316°
2026-04-25 11:28 58.28972 -7.55080 36266 ft 432 kts 316°
2026-04-25 11:28 58.33250 -7.63300 36265 ft 433 kts 316°
2026-04-25 11:29 58.37507 -7.71507 36265 ft 433 kts 316°
2026-04-25 11:29 58.41764 -7.79746 36270 ft 434 kts 316°
2026-04-25 11:30 58.45978 -7.87931 36273 ft 434 kts 316°
2026-04-25 11:30 58.50246 -7.96251 36273 ft 435 kts 316°
2026-04-25 11:31 58.54517 -8.04607 36275 ft 436 kts 316°
2026-04-25 11:31 58.58740 -8.12903 36277 ft 436 kts 316°
2026-04-25 11:32 58.63002 -8.21305 36275 ft 437 kts 316°
2026-04-25 11:32 58.67231 -8.29671 36277 ft 437 kts 316°
2026-04-25 11:33 58.71466 -8.38083 36277 ft 438 kts 316°
2026-04-25 11:33 58.75714 -8.46550 36279 ft 438 kts 316°
2026-04-25 11:34 58.79925 -8.54975 36283 ft 439 kts 316°
2026-04-25 11:34 58.84179 -8.63519 36283 ft 439 kts 316°
2026-04-25 11:35 58.88426 -8.72080 36282 ft 440 kts 315°
2026-04-25 11:35 58.92643 -8.80614 36284 ft 440 kts 315°
2026-04-25 11:36 58.96887 -8.89236 36285 ft 441 kts 315°
2026-04-25 11:36 59.01123 -8.97874 36282 ft 441 kts 315°
2026-04-25 11:37 59.05371 -9.06569 36285 ft 442 kts 315°
2026-04-25 11:37 59.09599 -9.15256 36288 ft 442 kts 315°
2026-04-25 11:38 59.13824 -9.23971 36286 ft 443 kts 315°
2026-04-25 11:38 59.18053 -9.32728 36292 ft 443 kts 315°
2026-04-25 11:39 59.22279 -9.41512 36296 ft 443 kts 315°
2026-04-25 11:39 59.26522 -9.50365 36299 ft 443 kts 315°
2026-04-25 11:40 59.30724 -9.59170 36299 ft 443 kts 315°
2026-04-25 11:40 59.34939 -9.68034 36298 ft 442 kts 314°
2026-04-25 11:41 59.39104 -9.76827 36302 ft 441 kts 314°
2026-04-25 11:41 59.43267 -9.85652 36299 ft 440 kts 314°
2026-04-25 11:42 59.47424 -9.94495 36307 ft 439 kts 314°
2026-04-25 11:42 59.51656 -10.03203 36307 ft 437 kts 319°
2026-04-25 11:43 59.56122 -10.11474 36311 ft 437 kts 318°
2026-04-25 11:43 59.60536 -10.19776 36308 ft 436 kts 318°
2026-04-25 11:44 59.64975 -10.28163 36309 ft 436 kts 318°
2026-04-25 11:44 59.69381 -10.36520 36316 ft 436 kts 318°
2026-04-25 11:45 59.73766 -10.44871 36317 ft 436 kts 318°
2026-04-25 11:45 59.78122 -10.53197 36322 ft 435 kts 318°
2026-04-25 11:46 59.82512 -10.61620 36326 ft 435 kts 318°
2026-04-25 11:46 59.86883 -10.70039 36320 ft 436 kts 317°
2026-04-25 11:47 59.91223 -10.78433 36323 ft 436 kts 317°
2026-04-25 11:47 59.95575 -10.86880 36326 ft 436 kts 317°
2026-04-25 11:48 59.99929 -10.95364 36327 ft 436 kts 317°
2026-04-25 11:48 60.04275 -11.03866 36328 ft 436 kts 317°
2026-04-25 11:49 60.08641 -11.12440 36324 ft 436 kts 317°
2026-04-25 11:49 60.12985 -11.21004 36330 ft 436 kts 317°
2026-04-25 11:50 60.17323 -11.29591 36322 ft 436 kts 317°
2026-04-25 11:50 60.21654 -11.38197 36326 ft 436 kts 317°
2026-04-25 11:51 60.25981 -11.46830 36322 ft 436 kts 317°
2026-04-25 11:51 60.30307 -11.55493 36323 ft 436 kts 317°
2026-04-25 11:52 60.34613 -11.64152 36328 ft 436 kts 317°
2026-04-25 11:52 60.38917 -11.72840 36322 ft 436 kts 316°
2026-04-25 11:53 60.43252 -11.81626 36325 ft 436 kts 316°
2026-04-25 11:53 60.47539 -11.90351 36325 ft 436 kts 316°
2026-04-25 11:54 60.51869 -11.99195 36329 ft 436 kts 316°
2026-04-25 11:55 60.58296 -12.12391 36330 ft 436 kts 316°
2026-04-25 11:55 60.62571 -12.21212 36330 ft 436 kts 316°
2026-04-25 11:56 60.66840 -12.30057 36328 ft 436 kts 316°
2026-04-25 11:56 60.71140 -12.39002 36329 ft 437 kts 316°
2026-04-25 11:57 60.75394 -12.47887 36327 ft 437 kts 316°
2026-04-25 11:57 60.79679 -12.56873 36332 ft 439 kts 316°
2026-04-25 11:58 60.83985 -12.65940 36328 ft 441 kts 315°
2026-04-25 11:58 60.88284 -12.75030 36327 ft 443 kts 315°
2026-04-25 11:59 60.92580 -12.84151 36330 ft 445 kts 315°
2026-04-25 11:59 60.96917 -12.93398 36330 ft 447 kts 314°
2026-04-25 12:00 61.03079 -13.07906 36330 ft 447 kts 309°
2026-04-25 12:01 61.08928 -13.23088 36331 ft 447 kts 309°
2026-04-25 12:01 61.12794 -13.33162 36330 ft 447 kts 309°
2026-04-25 12:02 61.18600 -13.48372 36330 ft 447 kts 309°
2026-04-25 12:02 61.22482 -13.58600 36334 ft 446 kts 309°
2026-04-25 12:03 61.26371 -13.68888 36332 ft 446 kts 308°
2026-04-25 12:03 61.30207 -13.79085 36333 ft 446 kts 308°
2026-04-25 12:04 61.34050 -13.89348 36334 ft 446 kts 308°
2026-04-25 12:04 61.37921 -13.99727 36333 ft 446 kts 308°
2026-04-25 12:05 61.41719 -14.09961 36335 ft 446 kts 308°
2026-04-25 12:05 61.45530 -14.20273 36334 ft 446 kts 308°
2026-04-25 12:06 61.49334 -14.30611 36335 ft 446 kts 308°
2026-04-25 12:06 61.53128 -14.40972 36334 ft 446 kts 308°
2026-04-25 12:07 61.56920 -14.51372 36335 ft 446 kts 308°
2026-04-25 12:07 61.60711 -14.61817 36335 ft 446 kts 307°
2026-04-25 12:08 61.64491 -14.72281 36337 ft 445 kts 307°
2026-04-25 12:08 61.68259 -14.82756 36339 ft 445 kts 306°
2026-04-25 12:09 61.71997 -14.93199 36337 ft 445 kts 306°
2026-04-25 12:09 61.75742 -15.03706 36336 ft 445 kts 306°
2026-04-25 12:10 61.79476 -15.14234 36340 ft 445 kts 306°
2026-04-25 12:10 61.83190 -15.24750 36340 ft 445 kts 306°
2026-04-25 12:11 61.86935 -15.35404 36338 ft 445 kts 306°
2026-04-25 12:11 61.90661 -15.46054 36336 ft 446 kts 306°
2026-04-25 12:12 61.93765 -15.54964 36333 ft 446 kts 306°
2026-04-25 12:12 61.98082 -15.67411 36336 ft 446 kts 305°
2026-04-25 12:13 62.01757 -15.78065 36336 ft 446 kts 305°
2026-04-25 12:13 62.05465 -15.88863 36331 ft 447 kts 305°
2026-04-25 12:14 62.09160 -15.99673 36333 ft 447 kts 305°
2026-04-25 12:14 62.12832 -16.10466 36326 ft 447 kts 305°
2026-04-25 12:15 62.16505 -16.21315 36328 ft 447 kts 305°
2026-04-25 12:15 62.20154 -16.32143 36332 ft 446 kts 305°
2026-04-25 12:16 62.23813 -16.43052 36329 ft 446 kts 305°
2026-04-25 12:16 62.27441 -16.53922 36331 ft 446 kts 304°
2026-04-25 12:17 62.31087 -16.64896 36334 ft 446 kts 304°
2026-04-25 12:17 62.34708 -16.75850 36333 ft 446 kts 303°
2026-04-25 12:18 62.38319 -16.86821 36335 ft 446 kts 304°
2026-04-25 12:18 62.41907 -16.97780 36335 ft 446 kts 303°
2026-04-25 12:19 62.47297 -17.14336 36333 ft 446 kts 303°
2026-04-25 12:20 62.50881 -17.25416 36334 ft 446 kts 303°
2026-04-25 12:20 62.54436 -17.36458 36334 ft 446 kts 303°
2026-04-25 12:21 62.57994 -17.47562 36336 ft 446 kts 303°
2026-04-25 12:21 62.61556 -17.58732 36335 ft 446 kts 303°
2026-04-25 12:22 62.65097 -17.69892 36332 ft 446 kts 302°
2026-04-25 12:22 62.68626 -17.81070 36334 ft 446 kts 302°
2026-04-25 12:23 62.72163 -17.92325 36337 ft 446 kts 302°
2026-04-25 12:23 62.75660 -18.03512 36339 ft 446 kts 302°
2026-04-25 12:24 62.79176 -18.14812 36343 ft 446 kts 302°
2026-04-25 12:24 62.82672 -18.26105 36343 ft 445 kts 302°
2026-04-25 12:25 62.86166 -18.37447 36345 ft 445 kts 302°
2026-04-25 12:25 62.89631 -18.48753 36345 ft 445 kts 302°
2026-04-25 12:26 62.93079 -18.60059 36348 ft 445 kts 302°
2026-04-25 12:26 62.96558 -18.71522 36350 ft 445 kts 301°
2026-04-25 12:26 62.98273 -18.77181 36142 ft 451 kts 302°
2026-04-25 12:27 63.00178 -18.82928 35649 ft 464 kts 304°
2026-04-25 12:27 63.02087 -18.88713 35173 ft 474 kts 304°
2026-04-25 12:27 63.04060 -18.94719 34688 ft 484 kts 304°
2026-04-25 12:27 63.06039 -19.00764 34183 ft 492 kts 304°
2026-04-25 12:28 63.08085 -19.07029 33662 ft 498 kts 303°
2026-04-25 12:28 63.10111 -19.13254 33148 ft 501 kts 304°
2026-04-25 12:28 63.12147 -19.19522 32614 ft 487 kts 304°
2026-04-25 12:28 63.14092 -19.25526 32077 ft 467 kts 303°
2026-04-25 12:29 63.15964 -19.31324 31536 ft 450 kts 303°
2026-04-25 12:29 63.17762 -19.36904 31000 ft 435 kts 303°
2026-04-25 12:29 63.19514 -19.42360 30462 ft 429 kts 303°
2026-04-25 12:29 63.21219 -19.47678 29920 ft 422 kts 303°
2026-04-25 12:30 63.22922 -19.53002 29372 ft 415 kts 303°
2026-04-25 12:30 63.24591 -19.58234 28829 ft 409 kts 303°
2026-04-25 12:30 63.26222 -19.63358 28292 ft 404 kts 303°
2026-04-25 12:30 63.27866 -19.68535 27746 ft 399 kts 302°
2026-04-25 12:31 63.29460 -19.73562 27210 ft 395 kts 302°
2026-04-25 12:31 63.31051 -19.78594 26670 ft 391 kts 302°
2026-04-25 12:31 63.32600 -19.83505 26143 ft 388 kts 302°
2026-04-25 12:31 63.34168 -19.88486 25608 ft 386 kts 302°
2026-04-25 12:32 63.35712 -19.93401 25081 ft 385 kts 302°
2026-04-25 12:32 63.37256 -19.98326 24569 ft 383 kts 302°
2026-04-25 12:32 63.38786 -20.03216 24056 ft 382 kts 302°
2026-04-25 12:32 63.40298 -20.08061 23549 ft 380 kts 302°
2026-04-25 12:33 63.41821 -20.12951 23034 ft 378 kts 302°
2026-04-25 12:33 63.43332 -20.17813 22522 ft 378 kts 302°
2026-04-25 12:33 63.44827 -20.22637 22017 ft 378 kts 302°
2026-04-25 12:33 63.46345 -20.27541 21507 ft 377 kts 302°
2026-04-25 12:34 63.47834 -20.32363 21006 ft 375 kts 302°
2026-04-25 12:34 63.49317 -20.37177 20505 ft 373 kts 302°
2026-04-25 12:34 63.50801 -20.42003 20002 ft 372 kts 302°
2026-04-25 12:34 63.51769 -20.45155 19672 ft 370 kts 302°
2026-04-25 12:35 63.53725 -20.51543 19000 ft 368 kts 302°
2026-04-25 12:35 63.55175 -20.56289 18499 ft 366 kts 303°
2026-04-25 12:35 63.56428 -20.61207 18006 ft 361 kts 295°
2026-04-25 12:35 63.57542 -20.66218 17526 ft 360 kts 294°
2026-04-25 12:36 63.58658 -20.71236 17035 ft 358 kts 294°
2026-04-25 12:36 63.59768 -20.76242 16547 ft 356 kts 294°
2026-04-25 12:36 63.60867 -20.81212 16052 ft 354 kts 295°
2026-04-25 12:36 63.61946 -20.86103 15572 ft 353 kts 295°
2026-04-25 12:37 63.63027 -20.91017 15309 ft 343 kts 294°
2026-04-25 12:37 63.64233 -20.95504 15288 ft 331 kts 307°
2026-04-25 12:37 63.65689 -20.99599 14827 ft 338 kts 308°
2026-04-25 12:37 63.67152 -21.03657 14341 ft 334 kts 308°
2026-04-25 12:38 63.68604 -21.07660 13846 ft 325 kts 308°
2026-04-25 12:38 63.70001 -21.11505 13351 ft 317 kts 308°
2026-04-25 12:38 63.71389 -21.15330 12836 ft 311 kts 308°
2026-04-25 12:38 63.72745 -21.19072 12342 ft 305 kts 308°
2026-04-25 12:39 63.74075 -21.22745 11846 ft 299 kts 307°
2026-04-25 12:39 63.75359 -21.26300 11400 ft 290 kts 308°
2026-04-25 12:39 63.76610 -21.29766 11036 ft 282 kts 309°
2026-04-25 12:39 63.77835 -21.33168 10699 ft 280 kts 308°
2026-04-25 12:40 63.79078 -21.36624 10405 ft 280 kts 307°
2026-04-25 12:40 63.80302 -21.40031 10136 ft 281 kts 308°
2026-04-25 12:40 63.81537 -21.43475 9881 ft 280 kts 308°
2026-04-25 12:40 63.82738 -21.46829 9627 ft 271 kts 308°
2026-04-25 12:41 63.83927 -21.50154 9370 ft 268 kts 308°
2026-04-25 12:41 63.85089 -21.53408 9115 ft 264 kts 307°
2026-04-25 12:41 63.86237 -21.56630 8861 ft 264 kts 308°
2026-04-25 12:41 63.87399 -21.59896 8603 ft 263 kts 308°
2026-04-25 12:42 63.88551 -21.63136 8347 ft 263 kts 308°
2026-04-25 12:42 63.89318 -21.65297 8175 ft 263 kts 307°
2026-04-25 12:42 63.90844 -21.69602 7835 ft 262 kts 307°
2026-04-25 12:42 63.91967 -21.72775 7571 ft 254 kts 307°
2026-04-25 12:43 63.93074 -21.75904 7308 ft 248 kts 307°
2026-04-25 12:43 63.94140 -21.78925 7118 ft 244 kts 307°
2026-04-25 12:43 63.96201 -21.84776 7095 ft 233 kts 306°
2026-04-25 12:44 63.97226 -21.87692 7100 ft 234 kts 307°
2026-04-25 12:44 63.98237 -21.90572 7097 ft 231 kts 306°
2026-04-25 12:44 64.00234 -21.96270 7101 ft 230 kts 306°
2026-04-25 12:45 64.01225 -21.99105 7106 ft 230 kts 306°
2026-04-25 12:45 64.02233 -22.01991 7104 ft 230 kts 306°
2026-04-25 12:45 64.04224 -22.07702 7108 ft 231 kts 306°
2026-04-25 12:46 64.05215 -22.10548 7100 ft 232 kts 306°
2026-04-25 12:46 64.06252 -22.13534 6858 ft 242 kts 306°
2026-04-25 12:46 64.07295 -22.16538 6609 ft 241 kts 306°
2026-04-25 12:46 64.08323 -22.19503 6349 ft 237 kts 306°
2026-04-25 12:47 64.09314 -22.22364 6045 ft 224 kts 306°
2026-04-25 12:47 64.10268 -22.25126 5815 ft 222 kts 306°
2026-04-25 12:47 64.11229 -22.27909 5551 ft 221 kts 306°
2026-04-25 12:47 64.12188 -22.30691 5288 ft 221 kts 306°
2026-04-25 12:48 64.13135 -22.33440 5028 ft 221 kts 306°
2026-04-25 12:48 64.14089 -22.36214 4766 ft 222 kts 305°
2026-04-25 12:48 64.15050 -22.39009 4500 ft 222 kts 305°
2026-04-25 12:48 64.15848 -22.41935 4239 ft 217 kts 281°
2026-04-25 12:49 64.15822 -22.45264 4009 ft 206 kts 248°
2026-04-25 12:49 64.15372 -22.48360 3758 ft 206 kts 246°
2026-04-25 12:49 64.14912 -22.51427 3604 ft 202 kts 245°
2026-04-25 12:49 64.14473 -22.54387 3593 ft 191 kts 245°
2026-04-25 12:50 64.14059 -22.57228 3591 ft 181 kts 245°
2026-04-25 12:50 64.13670 -22.59853 3582 ft 169 kts 239°
2026-04-25 12:50 64.12927 -22.61584 3595 ft 142 kts 193°
2026-04-25 12:50 64.11989 -22.61413 3661 ft 144 kts 162°
2026-04-25 12:51 64.10998 -22.60895 3598 ft 148 kts 172°
2026-04-25 12:51 64.09982 -22.60663 3520 ft 147 kts 176°
2026-04-25 12:51 64.08953 -22.60601 3267 ft 150 kts 178°
2026-04-25 12:51 64.07901 -22.60566 2940 ft 154 kts 175°
2026-04-25 12:52 64.06825 -22.60533 2614 ft 157 kts 178°
2026-04-25 12:52 64.05742 -22.60579 2395 ft 153 kts 178°
2026-04-25 12:52 64.04668 -22.60602 2143 ft 156 kts 176°
2026-04-25 12:52 64.03624 -22.60607 1936 ft 139 kts 176°
2026-04-25 12:53 64.02694 -22.60688 1717 ft 130 kts 177°
2026-04-25 12:53 64.01814 -22.60784 1478 ft 125 kts 177°
2026-04-25 12:53 64.00957 -22.60702 1139 ft 125 kts 171°
2026-04-25 12:53 64.00104 -22.60564 705 ft 119 kts 174°
2026-04-25 12:54 63.99247 -22.60558 800 ft 130 kts 176°
2026-04-25 12:54 63.98315 -22.60547 1193 ft 148 kts 175°
2026-04-25 12:54 63.97233 -22.60557 1527 ft 167 kts 176°
2026-04-25 12:54 63.95948 -22.60588 1734 ft 200 kts 177°
2026-04-25 12:55 63.94494 -22.60627 1922 ft 216 kts 178°
2026-04-25 12:55 63.93475 -22.60651 2161 ft 221 kts 178°
2026-04-25 12:55 63.91421 -22.60694 2798 ft 223 kts 179°
2026-04-25 12:55 63.89868 -22.60735 3241 ft 227 kts 180°
2026-04-25 12:56 63.88280 -22.60879 3714 ft 233 kts 181°
2026-04-25 12:56 63.86671 -22.60995 4079 ft 234 kts 181°
2026-04-25 12:56 63.85015 -22.60632 4103 ft 245 kts 161°
2026-04-25 12:56 63.83644 -22.58356 4116 ft 251 kts 130°
2026-04-25 12:57 63.83035 -22.54750 4104 ft 246 kts 97°
2026-04-25 12:57 63.83411 -22.51032 4108 ft 248 kts 64°
2026-04-25 12:57 63.84376 -22.47804 4106 ft 246 kts 59°
2026-04-25 12:57 63.85355 -22.44645 4106 ft 243 kts 59°
2026-04-25 12:58 63.86327 -22.41499 4105 ft 245 kts 59°
2026-04-25 12:58 63.87315 -22.38292 4106 ft 247 kts 59°
2026-04-25 12:58 63.88328 -22.35008 4105 ft 249 kts 59°
2026-04-25 12:58 63.89334 -22.31740 4110 ft 251 kts 59°
2026-04-25 12:59 63.90345 -22.28452 4109 ft 252 kts 59°
2026-04-25 12:59 63.91515 -22.25458 4103 ft 258 kts 37°
2026-04-25 12:59 63.93241 -22.24143 4117 ft 263 kts
2026-04-25 12:59 63.95070 -22.24727 4119 ft 264 kts 348°
2026-04-25 13:00 63.96891 -22.25558 4109 ft 266 kts 349°
2026-04-25 13:00 63.98116 -22.26113 4108 ft 267 kts 349°
2026-04-25 13:00 64.00568 -22.27233 4109 ft 268 kts 349°
2026-04-25 13:00 64.02445 -22.28093 4109 ft 269 kts 349°
2026-04-25 13:01 64.04296 -22.28948 4110 ft 270 kts 349°
2026-04-25 13:01 64.06140 -22.29796 4109 ft 266 kts 349°
2026-04-25 13:01 64.07944 -22.30619 4104 ft 258 kts 349°
2026-04-25 13:01 64.09711 -22.31416 4104 ft 251 kts 349°
2026-04-25 13:02 64.11423 -22.32255 3930 ft 253 kts 341°
2026-04-25 13:02 64.12882 -22.34494 3681 ft 251 kts 306°
2026-04-25 13:02 64.13854 -22.37854 3358 ft 254 kts 298°
2026-04-25 13:02 64.14814 -22.41303 2992 ft 255 kts 299°
2026-04-25 13:03 64.15776 -22.44764 2654 ft 254 kts 299°
2026-04-25 13:03 64.16625 -22.48249 2592 ft 236 kts 281°
2026-04-25 13:03 64.16618 -22.51743 2608 ft 211 kts 244°
2026-04-25 13:03 64.16029 -22.54850 2606 ft 207 kts 238°
2026-04-25 13:04 64.15186 -22.57426 2603 ft 193 kts 211°
2026-04-25 13:04 64.14086 -22.59159 2603 ft 191 kts 209°
2026-04-25 13:04 64.12903 -22.60476 2602 ft 182 kts 183°
2026-04-25 13:04 64.11616 -22.60529 2611 ft 186 kts 178°
2026-04-25 13:05 64.10277 -22.60549 2394 ft 190 kts 178°
2026-04-25 13:05 64.08955 -22.60554 2147 ft 190 kts 177°
2026-04-25 13:05 64.07699 -22.60560 1910 ft 161 kts 176°
2026-04-25 13:05 64.06644 -22.60559 1687 ft 145 kts 175°
2026-04-25 13:06 64.05676 -22.60558 1504 ft 130 kts 175°
2026-04-25 13:06 64.04793 -22.60554 1322 ft 124 kts 175°
2026-04-25 13:06 64.03930 -22.60552 1147 ft 120 kts 175°
2026-04-25 13:06 64.03095 -22.60553 978 ft 113 kts 175°
2026-04-25 13:07 64.02303 -22.60548 824 ft 112 kts 175°
2026-04-25 13:07 64.01505 -22.60541 668 ft 112 kts 175°
2026-04-25 13:07 64.00703 -22.60548 512 ft 113 kts 176°
2026-04-25 13:07 63.99895 -22.60545 353 ft 114 kts 176°
2026-04-25 13:08 63.99094 -22.60552 197 ft 111 kts 176°
2026-04-25 13:08 63.98379 -22.60545 169 ft 83 kts 181°
2026-04-25 13:08 63.97964 -22.60548 169 ft 33 kts 182°
2026-04-25 13:08 63.97774 -22.60548 167 ft 25 kts 180°
2026-04-25 13:09 63.97597 -22.60551 165 ft 22 kts 181°
2026-04-25 13:09 63.97453 -22.60604 162 ft 17 kts 226°
2026-04-25 13:09 63.97443 -22.60793 159 ft 11 kts 287°
2026-04-25 13:09 63.97486 -22.60945 157 ft 13 kts 342°
2026-04-25 13:10 63.97584 -22.60947 160 ft 14 kts
2026-04-25 13:10 63.97694 -22.60947 162 ft 16 kts
2026-04-25 13:10 63.97821 -22.60946 163 ft 19 kts
2026-04-25 13:10 63.97964 -22.60948 164 ft 21 kts
2026-04-25 13:11 63.98125 -22.60945 164 ft 25 kts
2026-04-25 13:11 63.98311 -22.60945 164 ft 25 kts
2026-04-25 13:11 63.98460 -22.60945 164 ft 22 kts
2026-04-25 13:11 63.98627 -22.60944 164 ft 25 kts 360°
2026-04-25 13:12 63.98740 -22.60945 163 ft 10 kts
2026-04-25 13:12 63.98814 -22.60944 161 ft 13 kts
2026-04-25 13:12 63.98910 -22.60946 159 ft 15 kts
2026-04-25 13:12 63.98989 -22.60945 159 ft 18 kts
2026-04-25 13:13 63.99136 -22.60945 154 ft 10 kts 356°
2026-04-25 13:13 63.99173 -22.61076 152 ft 12 kts 266°
2026-04-25 13:13 63.99173 -22.61314 148 ft 11 kts 269°
2026-04-25 13:13 63.99202 -22.61437 146 ft 9 kts 347°
2026-04-25 13:14 63.99274 -22.61438 145 ft 10 kts
2026-04-25 13:14 63.99318 -22.61441 144 ft 2 kts 339°
2026-04-25 13:14 63.99323 -22.61497 144 ft 5 kts 271°
2026-04-25 13:14 63.99323 -22.61584 144 ft 4 kts 270°
2026-04-25 13:15 63.99323 -22.61620 144 ft 1 kts 270°
2026-04-25 13:15 63.99323 -22.61640 144 ft 0 kts 270°